Content
SEND FEEDBACK

Daily
Averages
Monthly
Summary
United States of America

HAVERHILL, FLORIDA


Home > North America > United States > Florida
Elevation: 16 feet     Latitude: 26 41N     Longitude: 080 07W

WEATHER
 
SELECT A DAY
Number of Records: 194,343;   Date Range: 1/1/95 - 11/24/14
 
SHARE

PRINT THIS DATA

[ ← Previous Day ]
WEATHER ALMANAC - JANUARY 31, 2013
[ Next Day → ]
[ °C ]   °F
Weather ElementAverageHighLow
Temperature64.3 °F71.6 °F (7:42 am)55 °F (11:53 pm)
Dewpoint56.1 °F69.8 °F (7:42 am)37 °F (9:53 pm)
Humidity76.5 %94 % (7:42 am)44 % (9:53 pm)
Barometer30.08 in30.18 in (10:53 pm)29.95 in (2:53 am)
Wind Speed11 mph24.2 mph (7:53 am)
Wind Gust28.8 mph (7:53 am)
Weather ElementAverage
Visibility10 mi
Wind DirectionWNW (291.8 °)

Weather ElementTotal
Precipitation0.01 in
Heating Degree Days1.7 (Base 65)
Growing Degree Days13.3 (Base 50)
Averaged from 34 records on January 31, 2013
WEATHER CONDITIONS BREAKOUT
WIND DIRECTION BREAKOUT
WEATHER BY HOUR - JANUARY 31, 2013
[ °C ]   °F
Local TimeTemperatureDewpointHumidityBarometerVisibilityWind DirectionWind SpeedGust SpeedPrecipitationEventsConditions
1:53 AM70.0 °F66.9 °F90 %29.98 in10.0 miSSW (200°)6.9 mphPartly Cloudy
2:53 AM70.0 °F66.9 °F90 %29.95 in10.0 miSouth (180°)8.1 mphClear
3:53 AM70.0 °F66.9 °F90 %29.95 in10.0 miSouth (180°)8.1 mphClear
4:53 AM70.0 °F68.0 °F93 %29.96 in10.0 miSouth (190°)5.8 mphPartly Cloudy
5:53 AM71.1 °F69.1 °F93 %29.96 in10.0 miSouth (190°)6.9 mphScattered Clouds
6:53 AM71.1 °F69.1 °F93 %29.98 in10.0 miSSW (200°)8.1 mphMostly Cloudy
7:42 AM71.6 °F69.8 °F94 %30.02 in10.0 miWest (280°)18.4 mph21.9 mphMostly Cloudy
7:53 AM66.9 °F64.9 °F93 %30.04 in10.0 miNW (310°)24.2 mph28.8 mph0.01 inRainLight Rain
8:00 AM62.6 °F60.8 °F94 %30.05 in10.0 miNW (320°)20.7 mph28.8 mph0.00 inRainLight Rain
8:16 AM62.6 °F60.8 °F94 %30.06 in10.0 miNW (310°)19.6 mph26.5 mph0.00 inRainLight Rain
8:48 AM62.6 °F60.8 °F94 %30.08 in10.0 miNW (320°)13.8 mph0.00 inOvercast
8:53 AM63.0 °F60.1 °F90 %30.09 in10.0 miNNW (330°)17.3 mph0.00 inOvercast
8:59 AM62.6 °F60.8 °F94 %30.09 in10.0 miNNW (330°)11.5 mphOvercast
9:15 AM62.6 °F59.0 °F88 %30.09 in10.0 miNW (320°)11.5 mphOvercast
9:53 AM62.1 °F57.9 °F86 %30.11 in10.0 miNW (320°)15.0 mphOvercast
10:17 AM62.6 °F57.2 °F82 %30.12 in10.0 miNNW (330°)16.1 mphOvercast
10:47 AM62.6 °F57.2 °F82 %30.12 in10.0 miNW (310°)10.4 mphOvercast
10:53 AM63.0 °F57.0 °F81 %30.12 in10.0 miWNW (300°)12.7 mphOvercast
11:02 AM62.6 °F57.2 °F82 %30.11 in10.0 miNW (320°)13.8 mphOvercast
11:42 AM62.6 °F53.6 °F72 %30.11 in10.0 miNW (320°)10.4 mphOvercast
11:49 AM62.6 °F51.8 °F68 %30.11 in10.0 miNNW (330°)11.5 mphOvercast
11:53 AM62.1 °F50.0 °F65 %30.10 in10.0 miNNW (340°)10.4 mphOvercast
12:53 PM64.0 °F48.9 °F58 %30.09 in10.0 miNNW (340°)8.1 mphOvercast
1:53 PM60.1 °F55.0 °F83 %30.07 in10.0 miNNW (340°)8.1 mph0.00 inRainLight Rain
2:53 PM64.9 °F50.0 °F58 %30.06 in10.0 miNW (320°)11.5 mph0.00 inOvercast
3:53 PM64.9 °F48.0 °F54 %30.07 in10.0 miNNW (340°)10.4 mphMostly Cloudy
4:53 PM66.0 °F51.1 °F59 %30.09 in10.0 miNNW (330°)3.5 mphMostly Cloudy
5:53 PM66.9 °F53.1 °F61 %30.09 in10.0 miNNW (340°)3.5 mphMostly Cloudy
6:53 PM66.0 °F52.0 °F60 %30.12 in10.0 miNorth (10°)8.1 mphScattered Clouds
7:53 PM64.0 °F51.1 °F63 %30.13 in10.0 miNNW (340°)5.8 mphScattered Clouds
8:53 PM61.0 °F41.0 °F48 %30.16 in10.0 miNNW (340°)9.2 mphPartly Cloudy
9:53 PM59.0 °F37.0 °F44 %30.17 in10.0 miNNW (330°)10.4 mphPartly Cloudy
10:53 PM55.9 °F37.9 °F51 %30.18 in10.0 miNNW (330°)6.9 mphPartly Cloudy
11:53 PM55.0 °F37.9 °F53 %30.18 in10.0 miNNW (330°)8.1 mphPartly Cloudy
Hourly data recorded from KPBI, located miles away from Haverhill, Florida







STORIES FROM OUR PARTNERS